Location: Krasnoyarskiy Pitomnik
(51.1333°N, 71.6167°E)
Time: 21:55:06
(UTC+00:00)

Altair - Pass Details

Date: 20 April 2024
Orbit: 1501 x 1682 km, 47.2° (Epoch: 19 May)

Event Time Altitude Azimuth Distance (km) Brightness Sun altitude
Rises 19:43:40 0° 286° (WNW) 4,839 10.2 -26.6°
Reaches altitude 10° 19:47:01 10° 280° (W) 3,826 9.6 -26.5°
Enters shadow 19:55:33 42° 218° (SW) 2,113 7.7 -26.3°
Maximum altitude 19:55:51 42° 214° (SW) 2,108 - -26.3°
Drops below altitude 10° 20:04:22 10° 147° (SSE) 3,690 - -26.0°
Sets 20:07:34 0° 141° (SE) 4,653 - -25.8°
